Weather History for Alamosa, CO

Change the Weather History Date:

Tuesday, May 14, 2013

  Actual Average Record
Temperature  
Mean Temperature 55 °F 51 °F  
Max Temperature 77 °F 69 °F 82 °F (1978)
Min Temperature 33 °F 33 °F 17 °F (1933)
Degree Days  
Heating Degree Days 10 14  
Month to date heating degree days 288 227  
Since 1 July heating degree days 8740 8227  
Cooling Degree Days 0 0  
Month to date cooling degree days 0 0  
Year to date cooling degree days 0 0  
Growing Degree Days 5 (Base 50)    
Moisture  
Dew Point 36 °F    
Average Humidity 52    
Maximum Humidity 86    
Minimum Humidity 18    
Precipitation  
Precipitation 0.11 in 0.02 in 0.40 in (1987)
Month to date precipitation 0.16 0.29  
Year to date precipitation 1.04 1.93  
Snow  
Snow 0.00 in 0.10 in 1.20 in (1967)
Month to date snowfall 0.0 0.8  
Since 1 July snowfall 21.1 27.5  
Snow Depth 0.00 in    
Sea Level Pressure  
Sea Level Pressure 30.03 in    
Wind  
Wind Speed 6 mph (SW)    
Max Wind Speed 28 mph    
Max Gust Speed 37 mph    
Visibility 10 miles    
Events Rain , Thunderstorm    
T = Trace of Precipitation, MM = Missing Value Source: NWS Daily Summary

Daily Weather History Graph

Daily Weather History Graph

Search for Another Location

Airport:

Trip Planner

Search our weather history database for the weather conditions in past years. The results will help you decide how hot, cold, wet, or windy it might be!

Date:

Astronomy

May. 14, 2013 Rise Set
Actual Time 5:54 AM MDT 8:05 PM MDT
Civil Twilight 5:25 AM MDT 8:34 PM MDT
Nautical Twilight 4:50 AM MDT 9:10 PM MDT
Astronomical Twilight 4:11 AM MDT 9:49 PM MDT
Moon 9:36 AM MDT (5/14) 11:54 PM MDT (5/14)
Length of Visible Light 15h 08m
Length of Day
14h 10m
Waxing Crescent, 19% of the Moon is Illuminated
May 14
Waxing Crescent
May 17
First Quarter
May 24
Full
May 31
Last Quarter
Jun 8
New

Hourly Weather History & Observations

Time (MDT) Temp. Windchill Dew Point Humidity Pressure Visibility Wind Dir Wind Speed Gust Speed Precip Events Conditions
12:52 AM 46.0 °F 43.9 °F 34.0 °F 63% 30.06 in 10.0 mi SW 4.6 mph - N/A   Clear
1:52 AM 44.1 °F 40.8 °F 32.0 °F 63% 30.06 in 10.0 mi SSW 5.8 mph - N/A   Clear
2:52 AM 39.9 °F - 30.9 °F 70% 30.06 in 10.0 mi Calm Calm - N/A   Clear
3:52 AM 36.0 °F 33.3 °F 30.0 °F 79% 30.08 in 10.0 mi East 3.5 mph - N/A   Clear
4:52 AM 36.0 °F 32.1 °F 30.0 °F 79% 30.08 in 10.0 mi SSE 4.6 mph - N/A   Clear
5:52 AM 34.0 °F - 28.9 °F 82% 30.09 in 10.0 mi Calm Calm - N/A   Clear
6:52 AM 39.9 °F - 30.0 °F 68% 30.10 in 10.0 mi Calm Calm - N/A   Clear
7:52 AM 48.0 °F - 32.0 °F 54% 30.09 in 10.0 mi Calm Calm - N/A   Clear
8:52 AM 55.0 °F - 33.1 °F 43% 30.06 in 10.0 mi South 3.5 mph - N/A   Clear
9:52 AM 60.1 °F - 33.1 °F 36% 30.03 in 10.0 mi Variable 3.5 mph - N/A   Clear
10:52 AM 64.9 °F - 33.1 °F 31% 30.00 in 10.0 mi Variable 3.5 mph - N/A   Clear
11:52 AM 69.1 °F - 33.1 °F 26% 29.98 in 10.0 mi Calm Calm - N/A   Clear
12:52 PM 73.0 °F - 30.0 °F 20% 29.93 in 10.0 mi Variable 5.8 mph - N/A   Clear
1:52 PM 73.9 °F - 28.0 °F 18% 29.90 in 10.0 mi Variable 3.5 mph - N/A   Clear
2:52 PM 75.9 °F - 28.9 °F 18% 29.89 in 10.0 mi Variable 5.8 mph 17.3 mph N/A   Scattered Clouds
3:52 PM 73.9 °F - 28.0 °F 18% 29.89 in 10.0 mi Variable 5.8 mph - N/A   Clear
4:52 PM 60.1 °F - 42.1 °F 51% 29.99 in 4.0 mi SSE 16.1 mph 35.7 mph 0.01 in Rain Rain
4:59 PM 60.8 °F - 42.8 °F 52% 30.12 in 7.0 mi South 19.6 mph 28.8 mph 0.02 in Rain , Thunderstorm Light Rain
5:31 PM 62.6 °F - 39.2 °F 42% 30.16 in 10.0 mi SW 8.1 mph 27.6 mph 0.02 in   Mostly Cloudy
5:43 PM 60.8 °F - 39.2 °F 45% 30.18 in 10.0 mi WNW 17.3 mph 25.3 mph 0.02 in Thunderstorm Overcast
5:52 PM 57.9 °F - 41.0 °F 53% 30.06 in 10.0 mi NW 19.6 mph 27.6 mph 0.02 in Rain Light Rain
6:52 PM 52.0 °F - 46.0 °F 80% 30.05 in 10.0 mi NW 13.8 mph - 0.08 in Rain Light Rain
7:52 PM 52.0 °F - 44.1 °F 74% 30.04 in 10.0 mi West 13.8 mph - 0.00 in   Mostly Cloudy
8:52 PM 51.1 °F - 45.0 °F 80% 30.02 in 10.0 mi NNW 6.9 mph 19.6 mph 0.00 in Rain Light Rain
9:52 PM 51.1 °F - 44.1 °F 77% 30.02 in 10.0 mi WSW 8.1 mph - 0.00 in   Overcast
10:52 PM 51.1 °F - 44.1 °F 77% 29.99 in 10.0 mi ENE 9.2 mph - 0.00 in   Overcast
11:52 PM 48.0 °F - 44.1 °F 86% 29.95 in 10.0 mi Calm Calm - N/A   Clear